TimePDT,TemperatureF,Dew PointF,Humidity,Sea Level PressureIn,VisibilityMPH,Wind Direction,Wind SpeedMPH,Gust SpeedMPH,PrecipitationIn,Events,Conditions,WindDirDegrees,DateUTC
12:56 AM,64.9,57.9,78,29.97,10.0,NNW,5.8,-,N/A,,Clear,340,2013-09-01 07:56:00
1:56 AM,63.0,57.0,81,29.96,10.0,NNE,5.8,-,N/A,,Clear,20,2013-09-01 08:56:00
2:56 AM,62.1,57.0,84,29.96,10.0,North,3.5,-,N/A,,Scattered Clouds,10,2013-09-01 09:56:00
3:56 AM,63.0,57.0,81,29.96,10.0,NNE,3.5,-,N/A,,Partly Cloudy,20,2013-09-01 10:56:00
4:56 AM,63.0,57.0,81,29.96,10.0,Calm,Calm,-,N/A,,Clear,0,2013-09-01 11:56:00
5:56 AM,63.0,55.9,78,29.95,10.0,Calm,Calm,-,N/A,,Clear,0,2013-09-01 12:56:00
6:56 AM,63.0,57.0,81,29.96,10.0,Calm,Calm,-,N/A,,Clear,0,2013-09-01 13:56:00
7:56 AM,64.9,57.0,75,29.97,10.0,Calm,Calm,-,N/A,,Clear,0,2013-09-01 14:56:00
8:56 AM,68.0,57.0,68,29.98,10.0,North,3.5,-,N/A,,Mostly Cloudy,350,2013-09-01 15:56:00
9:56 AM,68.0,57.0,68,29.98,10.0,NNW,5.8,-,N/A,,Scattered Clouds,340,2013-09-01 16:56:00
10:56 AM,70.0,57.0,63,29.97,10.0,Variable,4.6,-,N/A,,Clear,0,2013-09-01 17:56:00
11:56 AM,73.9,57.0,55,29.96,10.0,Variable,5.8,-,N/A,,Clear,0,2013-09-01 18:56:00
12:56 PM,75.9,57.0,52,29.94,10.0,NNW,8.1,-,N/A,,Clear,340,2013-09-01 19:56:00
1:56 PM,77.0,57.9,52,29.93,10.0,NNW,11.5,-,N/A,,Clear,340,2013-09-01 20:56:00
2:56 PM,77.0,55.0,47,29.91,10.0,NW,12.7,-,N/A,,Clear,320,2013-09-01 21:56:00
3:56 PM,78.1,55.0,45,29.90,10.0,NNW,18.4,23.0,N/A,,Clear,340,2013-09-01 22:56:00
4:56 PM,73.0,59.0,61,29.90,10.0,NNW,15.0,20.7,N/A,,Scattered Clouds,340,2013-09-01 23:56:00
5:56 PM,73.9,61.0,64,29.91,10.0,NNW,15.0,18.4,N/A,,Clear,340,2013-09-02 00:56:00
6:56 PM,72.0,61.0,68,29.92,10.0,NNW,9.2,-,N/A,,Clear,340,2013-09-02 01:56:00
7:56 PM,69.1,62.1,78,29.93,10.0,North,15.0,-,N/A,,Clear,360,2013-09-02 02:56:00
8:56 PM,69.1,62.1,78,29.95,10.0,North,9.2,-,N/A,,Clear,350,2013-09-02 03:56:00
9:56 PM,68.0,62.1,81,29.96,10.0,North,4.6,-,N/A,,Clear,10,2013-09-02 04:56:00
10:56 PM,68.0,60.1,76,29.95,10.0,Calm,Calm,-,N/A,,Clear,0,2013-09-02 05:56:00
11:56 PM,68.0,62.1,81,29.96,10.0,ENE,4.6,-,N/A,,Clear,70,2013-09-02 06:56:00